Flag for U.S.A. Weather past 2 weeks in Albany, New York, U.S.A.

Now
34 °F

Mostly cloudy.


Feels Like: 22 °F
Forecast: 28 / 32 °F
Wind: 22 mph from Northwest

Location: Albany County Airport

Current Time: Dec 18, 2014 at 8:04:01 PM

Latest Report: Dec 18, 2014 at 6:51 PM


Visibility: 10 mi

Pressure: 29.98 "Hg

Humidity: 70%

Dew point: 25 °F

Location of AlbanyLocation

Historic Weather in Albany — Graph

°F

Albany temperature yesterday

Maximum temperature yesterday: 41 °F (at 2:51 PM)
Minimum temperature yesterday: 36 °F (at 2:51 AM)
Average temperature yesterday: 38 °F

Past Weeks' High & Low Weather Summary

 TemperatureHumidityPressure
High42 °F (Dec 3, 6:51 PM)97% (Dec 17, 6:51 AM)30.76 "Hg (Dec 17, 6:51 AM)
Low12 °F (Dec 8, 6:51 AM)38% (Dec 8, 11:51 AM)29.55 "Hg (Dec 11, 1:57 AM)
Average32 °F75%30.11 "Hg
* Reported Dec 3 6:51 PM — Dec 18 6:51 PM, Albany, Weather by CustomWeather, © 2014

Note: Actual official high and low records may vary slightly from our data, if they occured in-between our weather recording intervals... More about our weather records

Advertising

Albany weather history for previous 24 hours

 ConditionsComfort  
Time TempWeatherWind HumidityBarometerVisibility
6:51 PM
Dec 18
34 °FMostly cloudy.22 mph70%29.98 "Hg10 mi
5:51 PM35 °FMostly cloudy.14 mph70%29.96 "Hg10 mi
4:51 PM35 °FOvercast.17 mph70%29.95 "Hg10 mi
3:51 PM36 °FMore clouds than sun.13 mph64%29.93 "Hg10 mi
2:51 PM36 °FMostly cloudy.13 mph67%29.92 "Hg10 mi
1:51 PM36 °FMostly cloudy.15 mph67%29.91 "Hg10 mi
12:51 PM36 °FOvercast.13 mph67%29.91 "Hg10 mi
11:51 AM36 °FOvercast.17 mph67%29.93 "Hg10 mi
10:51 AM36 °FOvercast.14 mph67%29.94 "Hg10 mi
9:51 AM36 °FOvercast.15 mph67%29.94 "Hg10 mi
8:51 AM36 °FMostly cloudy.17 mph67%29.92 "Hg10 mi
7:51 AM35 °FMostly cloudy.15 mph70%29.91 "Hg10 mi
6:51 AM35 °FLight snow. Overcast.18 mph72%29.90 "Hg10 mi
5:51 AM35 °FLight snow. Overcast.14 mph72%29.88 "Hg10 mi
4:51 AM35 °FLight snow. Mostly cloudy.14 mph75%29.86 "Hg6 mi
3:51 AM35 °FLight snow. Mostly cloudy.10 mph78%29.85 "Hg5 mi
2:51 AM35 °FLight snow. Overcast.9 mph78%29.86 "Hg9 mi
1:51 AM35 °FLight snow. Mostly cloudy.8 mph82%29.85 "Hg4 mi
12:51 AM36 °FLight snow. Overcast.14 mph75%29.84 "Hg9 mi
11:51 PM
Dec 17
37 °FMostly cloudy.9 mph73%29.85 "Hg10 mi
10:51 PM37 °FOvercast.10 mph73%29.85 "Hg10 mi
9:51 PM37 °FLight rain. Mostly cloudy.9 mph73%29.87 "Hg10 mi
8:51 PM38 °FMostly cloudy.8 mph70%29.87 "Hg10 mi
Weather by CustomWeather, © 2014

See weather overviewHow to use our weather pages